Time,TemperatureF,DewpointF,PressureIn,WindDirection,WindDirectionDegrees,WindSpeedMPH,WindSpeedGustMPH,Humidity,HourlyPrecipIn,Conditions,Clouds,dailyrainin,SoftwareType,DateUTC
2013-02-01 00:03:00,31.0,20.0,29.92,North,357,3.0,10.0,62,0.00,,,0.02,,2013-02-01 05:03:00,
2013-02-01 00:12:00,31.0,20.0,29.92,North,357,3.0,10.0,62,0.00,,,0.02,,2013-02-01 05:12:00,
2013-02-01 00:22:00,32.0,20.0,29.91,WSW,244,2.0,9.0,60,0.00,,,0.02,,2013-02-01 05:22:00,
2013-02-01 00:32:00,33.0,21.0,29.90,NW,305,5.0,20.0,60,0.00,,,0.02,,2013-02-01 05:32:00,
2013-02-01 00:42:00,33.0,21.0,29.90,NW,305,5.0,20.0,60,0.00,,,0.02,,2013-02-01 05:42:00,
2013-02-01 00:52:00,33.0,20.0,29.89,WNW,294,4.0,12.0,58,0.00,,,0.02,,2013-02-01 05:52:00,
2013-02-01 01:02:00,33.0,20.0,29.89,WNW,294,4.0,12.0,58,0.00,,,0.02,,2013-02-01 06:02:00,
2013-02-01 01:11:00,33.0,20.0,29.89,WNW,294,4.0,12.0,58,0.00,,,0.02,,2013-02-01 06:11:00,
2013-02-01 01:22:00,34.0,20.0,29.88,WSW,254,4.0,25.0,57,0.00,,,0.01,,2013-02-01 06:22:00,
2013-02-01 01:32:00,35.0,22.0,29.86,West,273,3.0,16.0,58,0.00,,,0.01,,2013-02-01 06:32:00,
2013-02-01 01:42:00,35.0,22.0,29.86,West,273,3.0,16.0,58,0.00,,,0.01,,2013-02-01 06:42:00,
2013-02-01 01:52:00,35.0,21.0,29.85,WNW,291,3.0,21.0,57,0.00,,,0.00,,2013-02-01 06:52:00,
2013-02-01 02:02:00,36.0,23.0,29.85,NNW,339,2.0,18.0,60,0.00,,,0.00,,2013-02-01 07:02:00,
2013-02-01 02:12:00,36.0,23.0,29.83,WNW,301,6.0,15.0,59,0.00,,,0.00,,2013-02-01 07:12:00,
2013-02-01 02:22:00,36.0,23.0,29.83,WNW,301,6.0,15.0,59,0.00,,,0.00,,2013-02-01 07:22:00,
2013-02-01 02:32:00,36.0,25.0,29.83,ENE,68,3.0,16.0,63,0.00,,,0.00,,2013-02-01 07:32:00,
2013-02-01 02:42:00,36.0,25.0,29.83,ENE,68,3.0,16.0,63,0.00,,,0.00,,2013-02-01 07:42:00,
2013-02-01 02:52:00,35.0,25.0,29.83,WSW,258,10.0,26.0,67,0.00,,,0.00,,2013-02-01 07:52:00,
2013-02-01 03:01:00,35.0,26.0,29.83,NW,312,6.0,22.0,69,0.00,,,0.00,,2013-02-01 08:01:00,
2013-02-01 03:11:00,35.0,26.0,29.83,NW,312,6.0,22.0,69,0.00,,,0.00,,2013-02-01 08:11:00,
2013-02-01 03:21:00,35.0,26.0,29.83,NW,312,6.0,22.0,69,0.00,,,0.00,,2013-02-01 08:21:00,
2013-02-01 03:32:00,33.0,27.0,29.84,SW,234,6.0,21.0,77,0.00,,,0.00,,2013-02-01 08:32:00,
2013-02-01 03:42:00,33.0,27.0,29.84,SW,234,6.0,21.0,77,0.00,,,0.00,,2013-02-01 08:42:00,
2013-02-01 03:52:00,32.0,27.0,29.84,East,79,4.0,16.0,83,0.00,,,0.00,,2013-02-01 08:52:00,
2013-02-01 04:02:00,32.0,27.0,29.84,East,79,4.0,16.0,83,0.00,,,0.00,,2013-02-01 09:02:00,
2013-02-01 04:11:00,32.0,27.0,29.84,East,79,4.0,16.0,83,0.00,,,0.00,,2013-02-01 09:11:00,
2013-02-01 04:21:00,30.0,27.0,29.85,WNW,289,5.0,16.0,88,0.00,,,0.00,,2013-02-01 09:21:00,
2013-02-01 04:32:00,29.0,26.0,29.86,North,358,9.0,24.0,89,0.00,,,0.00,,2013-02-01 09:32:00,
2013-02-01 04:52:00,28.0,25.0,29.88,NW,306,4.0,13.0,90,0.00,,,0.00,,2013-02-01 09:52:00,
2013-02-01 05:01:00,26.0,23.0,29.87,NNE,13,10.0,24.0,90,0.00,,,0.00,,2013-02-01 10:01:00,
2013-02-01 05:21:00,25.0,22.0,29.92,NNW,348,5.0,26.0,89,0.00,,,0.00,,2013-02-01 10:21:00,
2013-02-01 06:02:00,21.0,16.0,29.98,WNW,289,7.0,20.0,82,0.00,,,0.00,,2013-02-01 11:02:00,
2013-02-01 06:22:00,20.0,15.0,30.00,ENE,63,6.0,20.0,79,0.00,,,0.00,,2013-02-01 11:22:00,
2013-02-01 06:32:00,19.0,13.0,30.01,NNW,337,6.0,16.0,76,0.00,,,0.00,,2013-02-01 11:32:00,
2013-02-01 06:53:00,18.0,11.0,30.03,ENE,59,7.0,20.0,74,0.00,,,0.00,,2013-02-01 11:53:00,
2013-02-01 07:23:00,16.0,9.0,30.05,NNE,23,6.0,24.0,73,0.00,,,0.00,,2013-02-01 12:23:00,
2013-02-01 08:02:00,15.0,8.0,30.09,North,356,4.0,21.0,73,0.00,,,0.00,,2013-02-01 13:02:00,
2013-02-01 08:22:00,15.0,9.0,30.10,NW,312,5.0,22.0,75,0.00,,,0.00,,2013-02-01 13:22:00,
2013-02-01 08:33:00,15.0,8.0,30.12,NNE,28,5.0,23.0,74,0.00,,,0.00,,2013-02-01 13:33:00,
2013-02-01 08:53:00,15.0,9.0,30.13,North,354,4.0,20.0,76,0.00,,,0.00,,2013-02-01 13:53:00,
2013-02-01 09:32:00,14.0,5.0,30.17,NW,307,6.0,20.0,68,0.00,,,0.00,,2013-02-01 14:32:00,
2013-02-01 10:03:00,15.0,5.0,30.17,NE,40,5.0,14.0,65,0.00,,,0.00,,2013-02-01 15:03:00,
2013-02-01 10:12:00,15.0,4.0,30.18,NNW,348,8.0,18.0,62,0.00,,,0.00,,2013-02-01 15:12:00,
2013-02-01 10:22:00,15.0,4.0,30.18,NNW,348,8.0,18.0,62,0.00,,,0.00,,2013-02-01 15:22:00,
2013-02-01 10:33:00,15.0,4.0,30.18,North,5,7.0,23.0,60,0.00,,,0.00,,2013-02-01 15:33:00,
2013-02-01 10:52:00,15.0,3.0,30.19,NW,326,6.0,20.0,59,0.00,,,0.00,,2013-02-01 15:52:00,
2013-02-01 11:03:00,15.0,3.0,30.21,WNW,290,9.0,20.0,57,0.00,,,0.00,,2013-02-01 16:03:00,
2013-02-01 11:43:00,15.0,3.0,30.22,NE,55,7.0,22.0,57,0.00,,,0.00,,2013-02-01 16:43:00,
2013-02-01 11:53:00,15.0,3.0,30.22,NE,55,7.0,22.0,57,0.00,,,0.00,,2013-02-01 16:53:00,
2013-02-01 12:12:00,17.0,4.0,30.22,WSW,258,5.0,20.0,56,0.00,,,0.00,,2013-02-01 17:12:00,
2013-02-01 12:22:00,17.0,4.0,30.22,WSW,258,5.0,20.0,56,0.00,,,0.00,,2013-02-01 17:22:00,
2013-02-01 12:32:00,17.0,4.0,30.22,WNW,294,7.0,21.0,55,0.00,,,0.00,,2013-02-01 17:32:00,
2013-02-01 12:53:00,17.0,4.0,30.21,West,277,8.0,21.0,56,0.00,,,0.00,,2013-02-01 17:53:00,
2013-02-01 13:03:00,18.0,5.0,30.21,North,0,7.0,20.0,55,0.00,,,0.00,,2013-02-01 18:03:00,
2013-02-01 13:32:00,20.0,7.0,30.20,NE,45,5.0,13.0,56,0.00,,,0.00,,2013-02-01 18:32:00,
2013-02-01 13:53:00,20.0,8.0,30.19,NW,323,3.0,14.0,58,0.00,,,0.00,,2013-02-01 18:53:00,
2013-02-01 14:21:00,19.0,6.0,30.20,NW,325,6.0,20.0,57,0.00,,,0.00,,2013-02-01 19:21:00,
2013-02-01 14:32:00,19.0,7.0,30.20,NNE,30,5.0,20.0,58,0.00,,,0.00,,2013-02-01 19:32:00,
2013-02-01 14:52:00,20.0,7.0,30.20,WNW,289,3.0,17.0,57,0.00,,,0.00,,2013-02-01 19:52:00,
2013-02-01 15:02:00,21.0,7.0,30.21,WSW,258,3.0,14.0,54,0.00,,,0.00,,2013-02-01 20:02:00,
2013-02-01 15:11:00,21.0,7.0,30.21,WNW,297,6.0,20.0,55,0.00,,,0.00,,2013-02-01 20:11:00,
2013-02-01 15:21:00,21.0,7.0,30.21,WNW,297,6.0,20.0,55,0.00,,,0.00,,2013-02-01 20:21:00,
2013-02-01 15:32:00,21.0,7.0,30.21,West,279,3.0,13.0,54,0.00,,,0.00,,2013-02-01 20:32:00,
2013-02-01 15:42:00,22.0,7.0,30.21,West,269,3.0,14.0,52,0.00,,,0.00,,2013-02-01 20:42:00,
2013-02-01 15:52:00,22.0,7.0,30.21,West,269,3.0,14.0,52,0.00,,,0.00,,2013-02-01 20:52:00,
2013-02-01 16:32:00,21.0,6.0,30.22,North,7,6.0,17.0,52,0.00,,,0.00,,2013-02-01 21:32:00,
2013-02-01 16:53:00,21.0,6.0,30.25,NW,319,3.0,13.0,51,0.00,,,0.00,,2013-02-01 21:53:00,
2013-02-01 17:02:00,20.0,5.0,30.25,WNW,297,3.0,15.0,52,0.00,,,0.00,,2013-02-01 22:02:00,
2013-02-01 17:21:00,20.0,6.0,30.25,NW,308,6.0,17.0,53,0.00,,,0.00,,2013-02-01 22:21:00,
2013-02-01 17:32:00,19.0,5.0,30.26,NW,310,3.0,14.0,54,0.00,,,0.00,,2013-02-01 22:32:00,
2013-02-01 17:52:00,19.0,6.0,30.27,NNW,344,5.0,14.0,55,0.00,,,0.00,,2013-02-01 22:52:00,
2013-02-01 18:32:00,18.0,5.0,30.28,North,0,5.0,18.0,57,0.00,,,0.00,,2013-02-01 23:32:00,
2013-02-01 18:52:00,18.0,6.0,30.29,NE,40,2.0,13.0,58,0.00,,,0.00,,2013-02-01 23:52:00,
2013-02-01 19:02:00,17.0,5.0,30.30,NNE,18,2.0,6.0,59,0.00,,,0.00,,2013-02-02 00:02:00,
2013-02-01 19:32:00,17.0,6.0,30.32,NNE,31,3.0,6.0,60,0.00,,,0.00,,2013-02-02 00:32:00,
2013-02-01 19:52:00,17.0,6.0,30.32,NNE,12,0.0,6.0,60,0.00,,,0.00,,2013-02-02 00:52:00,
2013-02-01 20:32:00,16.0,5.0,30.34,NE,35,1.0,8.0,61,0.00,,,0.00,,2013-02-02 01:32:00,
2013-02-01 20:52:00,16.0,5.0,30.36,NNE,21,2.0,10.0,61,0.00,,,0.00,,2013-02-02 01:52:00,
2013-02-01 21:22:00,16.0,5.0,30.36,NNE,25,1.0,3.0,62,0.00,,,0.00,,2013-02-02 02:22:00,
2013-02-01 21:32:00,16.0,6.0,30.35,NE,36,1.0,3.0,63,0.00,,,0.00,,2013-02-02 02:32:00,
2013-02-01 21:52:00,16.0,6.0,30.35,NNE,13,0.0,8.0,63,0.00,,,0.00,,2013-02-02 02:52:00,
2013-02-01 22:02:00,16.0,6.0,30.36,NNE,32,1.0,5.0,63,0.00,,,0.00,,2013-02-02 03:02:00,
2013-02-01 22:11:00,16.0,6.0,30.35,NNE,27,2.0,6.0,63,0.00,,,0.00,,2013-02-02 03:11:00,
2013-02-01 22:22:00,16.0,6.0,30.35,NNE,27,2.0,6.0,63,0.00,,,0.00,,2013-02-02 03:22:00,
2013-02-01 22:32:00,16.0,6.0,30.35,NNE,22,2.0,7.0,63,0.00,,,0.00,,2013-02-02 03:32:00,
2013-02-01 23:02:00,16.0,6.0,30.35,NNE,22,2.0,10.0,63,0.00,,,0.00,,2013-02-02 04:02:00,
2013-02-01 23:22:00,16.0,6.0,30.35,NNE,30,2.0,10.0,63,0.00,,,0.00,,2013-02-02 04:22:00,
2013-02-01 23:52:00,16.0,6.0,30.34,NNE,25,0.0,3.0,64,0.00,,,0.00,,2013-02-02 04:52:00,